Theta_e
295 295 294 295 294 293 292 291 290 288 288 288 288 288 290 292 292 294 295 293 294 296 298 299 299 301 302 302 301 301 302 300 301 302 304 304 305 303 303 303 304 304 305 304 304 306 306 305 304 305 304 307 308 308
293 294 294 294 294 293 292 291 290 288 288 288 288 288 292 292 292 294 294 293 293 294 294 298 298 299 301 302 302 301 302 301 301 300 301 303 303 302 303 303 304 301 304 305 305 304 304 306 305 307 307 307 307 307
293 293 293 293 294 294 293 291 290 288 287 288 288 289 291 292 292 293 294 293 293 294 294 295 295 296 299 301 302 302 301 303 303 303 301 302 302 300 302 304 305 305 305 307 304 304 302 304 305 307 306 306 307 308
292 292 292 293 294 293 292 291 289 288 288 288 289 290 291 291 292 293 293 292 293 295 295 295 296 298 298 301 302 303 302 302 303 303 302 302 304 303 303 304 304 303 303 304 305 304 304 305 305 306 303 304 305 307
292 292 292 292 293 292 290 289 288 288 288 289 290 291 291 292 292 293 293 292 292 294 295 297 298 298 299 301 302 302 301 301 303 301 301 303 301 301 300 300 302 303 303 302 302 303 304 305 305 304 302 305 306 308
289 289 290 291 291 291 289 287 287 288 289 290 290 291 291 292 292 293 292 291 291 292 295 298 299 299 300 301 301 301 301 302 302 302 299 300 301 302 297 299 300 301 302 303 302 303 304 304 304 302 305 308 307 307
288 288 287 288 289 288 287 287 288 289 290 290 291 291 291 292 292 292 292 294 294 292 294 297 297 298 300 300 300 301 301 301 301 301 299 300 301 302 299 301 300 300 300 300 300 302 302 301 301 307 307 306 306 306
288 288 287 288 288 286 287 289 289 290 290 291 291 292 292 292 292 292 291 295 296 295 295 297 297 299 301 300 301 301 301 300 300 300 299 298 299 300 301 299 299 299 299 299 299 299 300 301 305 306 305 304 304 304
288 289 289 288 288 288 289 289 289 290 290 291 292 292 293 293 293 293 293 293 294 296 297 296 297 297 301 300 301 301 301 301 300 301 299 300 296 300 299 299 299 299 300 303 304 303 303 303 304 305 304 303 303 303
287 289 289 288 288 288 289 288 289 290 291 292 292 292 292 293 293 294 296 296 295 295 296 294 296 297 299 299 298 299 300 300 300 300 300 301 300 300 300 300 301 301 302 303 303 303 303 303 303 303 303 303 303 303
290 290 290 290 290 290 290 290 290 290 292 292 293 293 295 295 294 295 296 296 296 297 295 296 296 297 298 298 299 299 298 300 301 298 300 300 300 299 300 301 300 301 302 302 302 301 301 300 300 301 302 302 302 302
291 291 291 291 291 290 290 290 290 292 292 293 294 295 296 296 296 296 296 295 296 296 295 296 296 297 297 299 296 298 297 298 301 299 301 299 300 298 299 299 299 299 299 299 299 299 299 299 299 300 300 301 301 301
291 292 291 291 292 292 292 291 291 292 293 293 294 295 296 295 294 294 293 296 295 294 294 295 296 296 298 299 297 297 297 297 299 302 299 297 297 297 297 297 297 298 298 297 297 297 297 296 297 298 299 300 300 300
295 293 292 292 291 291 291 292 292 293 293 296 295 293 291 291 292 293 295 294 295 295 295 296 296 297 297 298 298 299 298 299 300 300 300 296 296 295 296 295 296 296 296 296 294 294 294 295 296 297 298 299 300 300
296 296 295 295 294 294 295 295 295 294 296 296 293 292 292 292 293 294 294 295 297 298 298 298 298 298 299 298 297 299 300 300 299 298 294 295 294 294 294 295 295 294 293 293 293 293 293 294 294 295 296 297 298 298
296 296 296 296 297 297 296 296 296 296 296 296 295 292 293 291 290 294 295 295 296 297 297 298 299 299 299 299 300 300 299 298 295 293 293 294 294 293 294 293 293 293 291 292 293 292 292 293 293 293 293 294 295 295
296 296 296 297 297 297 297 296 296 296 296 295 292 294 293 292 293 296 295 296 296 296 294 298 298 299 297 300 301 299 293 290 293 292 293 293 293 293 293 293 293 291 292 292 292 292 292 292 292 292 292 292 292 292
295 294 295 295 295 296 296 296 295 295 295 295 289 294 294 294 293 294 295 295 296 296 298 298 299 300 300 300 297 292 292 292 292 292 292 292 292 292 292 292 292 291 291 291 292 291 292 292 292 291 291 291 291 291
292 292 293 295 295 295 295 295 296 295 295 296 295 295 295 294 295 295 295 295 295 296 297 297 299 300 293 291 291 292 292 292 291 291 290 291 291 291 291 291 291 291 291 291 291 291 290 290 289 289 289 290 290 290
293 293 293 293 293 295 295 295 295 296 295 296 296 295 294 295 296 296 295 295 294 294 295 296 295 291 291 292 293 293 293 292 291 290 290 290 290 291 291 291 291 290 290 290 289 289 288 288 287 286 286 286 287 287
294 294 292 293 294 295 294 294 294 295 295 295 296 296 295 295 295 295 295 294 293 292 292 290 289 290 291 292 293 293 292 292 292 291 290 290 290 290 290 289 289 289 289 288 288 288 288 286 285 285 284 284 284 284
293 292 292 294 294 294 294 294 294 294 294 295 295 295 295 292 293 294 293 291 289 289 289 289 289 290 291 292 292 292 292 291 291 291 290 290 289 289 289 289 289 288 288 287 287 286 286 285 285 284 284 284 284 283
292 292 293 294 294 292 292 292 294 294 292 294 294 294 293 293 294 293 288 288 288 288 288 289 289 289 290 290 291 291 291 291 290 290 290 289 288 288 288 287 287 287 286 285 285 284 284 284 284 284 283 283 282 282
291 291 291 292 292 288 292 292 292 293 292 291 292 290 292 293 292 290 289 287 287 288 288 289 288 288 288 288 288 288 288 288 288 288 287 287 287 286 285 284 284 284 284 284 283 283 283 283 283 282 282 282 281 281
291 290 290 280 289 287 282 282 283 288 286 286 288 284 287 291 285 286 285 284 286 286 287 287 287 287 287 286 286 286 286 286 286 286 285 285 285 284 284 283 283 283 282 282 281 281 281 281 281 281 280 280 280 280
286 288 284 285 282 285 287 284 285 289 286 283 283 288 289 284 286 286 283 281 282 284 285 286 286 287 286 286 286 285 285 285 284 284 284 284 284 284 284 283 282 282 282 281 280 280 280 280 279 279 278 278 278 277
278 279 285 284 283 286 282 286 287 285 283 284 288 286 284 285 280 279 281 280 281 281 283 284 285 285 285 285 284 284 284 284 283 283 283 283 283 282 282 282 281 281 280 280 280 279 278 278 277 277 277 276 276 276
285 284 276 283 283 284 278 275 278 283 284 286 286 281 283 281 281 279 279 280 280 280 281 282 282 283 283 283 282 282 282 282 282 281 281 281 281 280 280 280 279 279 279 279 278 277 277 276 276 276 275 275 274 274
283 283 284 279 282 282 283 282 284 285 285 285 278 278 278 278 277 278 278 279 279 279 279 279 280 280 280 280 280 280 280 280 280 280 280 280 279 279 279 278 278 278 277 277 277 276 276 275 275 274 274 274 273 273
282 283 283 279 273 276 284 284 284 283 284 283 283 280 278 276 276 276 276 277 278 278 278 279 279 278 278 278 278 278 278 278 278 278 278 278 278 278 277 277 277 276 275 275 275 275 275 275 274 274 273 273 273 272
282 282 283 283 280 284 283 282 282 282 283 282 281 279 277 275 275 275 275 276 276 277 277 277 278 278 277 277 277 277 277 277 277 277 277 277 276 276 276 275 275 275 275 274 274 274 274 274 273 273 273 272 272 271
280 281 280 274 281 282 281 280 280 281 281 280 278 277 276 275 275 274 274 275 275 275 276 276 276 276 276 275 275 275 275 275 275 275 275 275 274 274 274 274 274 274 274 274 273 273 273 273 272 272 272 271 271 270
279 279 279 278 278 279 279 279 279 277 278 277 276 276 275 275 275 274 274 274 274 274 274 274 274 274 274 274 274 274 274 274 274 274 273 273 273 273 273 273 273 273 272 272 272 272 271 271 271 270 270 269 269 268
Wind_Speed
29 28 29 29 27 24 21 20 19 18 17 16 16 16 18 21 22 22 21 19 18 16 14 12 25 18 9 5 2 3 3 1 3 4 2 1 2 4 3 4 3 4 4 4 3 4 7 8 2 6 4 5 12 15
25 23 24 29 30 28 24 22 21 19 18 17 18 18 20 22 23 22 22 20 17 19 15 12 16 24 24 21 13 9 7 5 5 1 2 1 3 2 4 3 2 3 5 2 5 3 6 16 14 17 13 18 25 23
27 27 27 27 28 29 26 24 22 21 19 19 19 19 21 22 22 23 22 15 13 15 23 31 31 37 24 28 23 7 7 14 12 10 4 1 3 3 2 4 3 3 3 2 1 2 10 26 26 28 21 20 23 21
27 27 27 30 36 33 27 24 22 21 20 19 19 19 21 21 23 22 21 17 16 6 6 13 15 21 25 22 29 24 22 18 11 13 5 3 2 7 4 4 3 5 6 5 5 14 19 24 26 14 24 26 25 24
20 18 19 20 25 26 22 22 22 21 20 19 19 19 21 22 22 19 19 19 20 18 5 9 16 24 25 28 22 22 20 20 10 6 3 3 3 2 2 1 4 8 6 4 6 13 12 13 17 23 33 29 23 21
22 23 23 22 22 22 22 20 19 20 19 18 19 20 22 21 19 16 6 23 24 22 7 4 7 14 12 20 24 24 28 19 7 4 4 4 5 6 3 4 6 14 20 25 19 18 16 16 25 33 24 16 14 15
18 21 22 26 26 22 20 20 20 19 19 19 20 20 19 21 22 22 7 5 8 24 7 6 5 5 14 19 21 14 20 13 9 4 5 5 6 7 2 10 5 16 22 25 26 19 20 26 25 12 13 15 15 18
18 17 19 21 22 22 21 20 19 19 18 17 17 16 17 17 18 22 24 10 5 17 8 3 4 1 10 6 5 11 7 8 5 4 1 2 3 5 5 13 7 19 23 28 31 30 31 26 20 16 13 15 18 19
22 19 18 18 19 20 20 19 18 18 16 16 14 11 14 18 18 27 20 23 27 7 5 5 3 3 8 4 5 6 6 2 5 3 4 7 3 7 11 13 17 18 12 10 12 10 9 12 12 14 16 15 15 16
22 21 19 18 18 19 18 18 18 16 15 15 14 8 7 14 21 14 8 16 12 11 8 3 4 2 6 5 2 3 2 2 2 5 7 5 8 31 24 25 24 16 12 10 10 11 11 11 11 13 13 11 11 12
25 23 22 22 21 20 17 18 17 16 16 15 11 8 6 12 15 10 6 8 10 3 8 6 12 3 7 3 3 7 2 2 3 4 6 4 4 3 7 10 10 14 13 13 10 7 7 8 10 11 11 10 9 10
30 27 24 23 22 22 21 19 20 22 21 13 7 8 19 8 6 5 3 3 3 4 8 5 7 5 5 4 3 4 3 2 5 6 3 3 0 2 3 5 6 6 5 3 3 5 7 10 11 12 12 10 7 6
40 35 30 24 21 21 20 21 23 23 19 15 6 5 7 5 3 5 6 3 3 6 9 7 3 8 5 6 2 3 4 6 1 3 3 3 6 6 3 3 1 1 1 1 3 6 6 7 7 9 9 9 4 1
23 29 31 31 28 25 23 24 25 23 18 9 8 3 3 3 3 4 2 2 2 3 13 15 5 3 5 4 3 4 5 2 4 3 6 2 8 6 5 2 1 3 4 4 3 4 4 5 5 6 6 3 3 2
40 34 26 19 18 19 18 18 22 23 6 4 5 4 4 2 2 2 1 3 4 6 9 5 3 7 4 4 4 4 4 5 5 4 2 9 9 6 3 2 0 2 4 3 5 6 6 6 7 7 7 6 2 2
27 27 23 20 24 27 16 13 10 7 3 3 3 3 2 3 2 3 3 2 6 7 6 3 2 3 4 3 4 6 4 6 3 2 8 11 7 4 4 3 2 1 2 5 8 9 9 9 8 8 8 7 7 5
8 16 13 13 16 17 9 5 5 5 4 4 2 3 5 1 2 4 4 6 9 9 3 3 4 8 1 3 4 4 4 2 6 12 11 8 6 6 5 5 3 2 5 10 10 10 12 13 9 6 8 9 7 6
17 13 9 8 9 10 8 4 3 2 1 1 1 2 3 3 3 4 6 10 7 7 5 3 4 4 4 3 3 2 3 9 13 12 8 6 6 6 6 5 5 8 9 9 8 8 8 8 10 12 10 9 8 8
10 9 8 6 3 3 2 1 1 2 1 2 3 4 3 3 6 6 6 8 12 14 4 4 5 3 3 2 2 7 17 14 15 11 9 8 8 8 8 8 9 9 8 7 7 8 10 10 11 9 8 6 6 6
5 5 6 5 4 2 1 1 0 0 1 1 2 2 3 4 3 4 5 6 6 5 5 3 2 2 2 3 5 15 16 14 17 17 13 10 10 10 10 10 10 9 8 8 8 8 9 10 12 12 8 7 7 8
4 5 6 4 2 2 2 1 2 1 2 4 3 4 3 4 5 4 3 6 1 2 1 3 4 3 0 5 12 14 15 13 14 16 17 15 12 10 10 8 7 8 7 5 5 6 6 8 9 9 10 10 10 11
4 5 3 3 1 1 1 1 2 3 2 2 2 3 3 2 2 2 0 3 2 2 4 3 2 4 7 10 12 13 13 11 10 13 12 11 11 10 9 7 6 6 4 3 2 3 4 6 6 7 8 10 10 11
4 2 2 3 2 3 0 5 1 1 1 2 1 2 2 1 1 2 3 2 2 5 4 3 3 4 6 7 8 9 9 11 14 14 12 11 10 9 7 6 4 4 4 3 2 2 3 5 7 9 11 12 11 10
2 2 3 3 6 2 4 4 3 3 3 1 0 2 1 2 2 3 2 3 6 5 3 2 2 2 3 5 7 8 9 8 9 9 7 5 4 5 4 2 4 3 2 1 1 4 7 9 10 12 13 13 13 11
2 6 4 5 6 5 5 5 4 3 2 2 2 3 2 2 2 2 1 4 8 7 5 4 3 3 3 6 7 6 5 5 3 4 6 5 3 5 6 5 5 5 3 3 4 6 8 10 12 13 13 12 12 12
5 7 4 5 5 3 2 3 2 2 0 3 2 4 3 2 2 2 2 7 6 8 7 4 3 4 2 2 3 3 3 3 2 1 3 4 5 4 4 5 3 1 3 4 6 9 11 12 12 12 11 10 10 11
4 3 5 6 6 5 4 3 3 2 2 2 3 4 2 1 1 1 2 6 5 8 8 6 4 4 3 5 5 3 2 2 2 3 2 3 6 7 6 4 3 3 4 6 10 11 11 11 11 11 10 10 10 12
4 6 1 14 5 4 1 2 2 3 2 7 7 3 1 1 1 0 1 2 2 4 6 7 6 3 2 4 3 1 1 1 1 3 4 6 6 6 5 3 1 4 7 10 10 10 10 9 9 8 8 9 11 13
3 10 9 4 4 2 3 2 2 4 8 4 1 2 1 1 1 2 4 5 5 5 5 5 3 2 2 1 1 1 1 2 4 4 4 3 4 2 0 3 5 8 10 10 9 8 7 7 7 7 8 10 10 10
4 11 3 2 1 2 1 5 7 11 10 6 4 2 2 3 2 2 5 6 6 4 4 5 3 2 2 2 2 2 4 6 9 10 8 6 4 4 4 5 7 7 7 6 6 6 6 6 6 7 7 8 8 8
6 4 3 2 3 2 6 15 15 10 6 5 3 2 1 2 2 3 3 3 2 1 1 1 2 3 5 2 1 2 2 1 0 1 2 4 4 3 3 4 4 4 3 3 3 4 4 5 6 6 7 6 6 7
4 2 4 2 4 6 9 10 8 3 2 1 2 2 1 1 2 1 3 3 2 2 1 1 1 1 2 3 3 3 2 1 2 2 2 2 2 1 1 2 3 3 3 4 4 5 5 5 5 5 5 5 6 6
3 3 2 4 4 6 6 9 6 7 4 3 3 3 2 2 1 1 1 2 1 1 1 2 1 1 1 1 2 2 2 2 0 1 2 2 1 1 2 3 3 4 4 5 5 5 5 5 5 5 5 5 6 6
Wind_Direction
219 218 219 217 213 225 226 225 224 224 223 225 227 227 227 224 219 226 234 226 224 236 274 266 240 239 239 236 215 308 344 241 149 183 204 169 221 241 251 229 218 214 192 205 218 229 265 352 359 187 214 300 298 287
228 226 224 221 215 219 227 226 226 227 229 229 229 227 226 224 220 221 233 232 235 241 254 240 257 252 252 252 251 234 218 181 229 187 223 181 213 219 222 255 224 249 196 199 201 236 314 313 287 288 301 302 302 302
223 225 227 230 224 219 222 225 226 228 230 228 231 232 227 221 221 222 228 239 232 253 276 265 263 261 262 249 247 244 252 240 204 220 266 205 252 133 208 255 237 283 349 202 23 149 271 288 304 289 294 308 317 313
228 226 226 224 225 216 216 223 227 224 226 229 234 232 223 220 219 223 227 227 224 244 268 286 276 263 266 243 232 240 253 284 254 193 214 197 215 199 216 239 201 217 156 195 236 264 271 256 256 284 322 316 308 307
207 213 216 215 202 197 208 226 224 223 225 228 231 227 218 216 219 227 235 237 225 218 266 286 296 275 261 221 224 234 256 256 227 170 173 229 234 182 223 292 237 192 202 189 245 237 243 271 284 306 312 304 300 302
218 219 218 213 210 213 224 224 219 220 224 226 225 220 215 212 210 213 247 247 230 228 259 270 287 255 232 220 232 235 241 252 232 198 195 213 220 201 205 238 230 241 246 249 255 281 278 285 291 301 297 303 310 307
218 220 220 217 216 217 218 212 214 216 219 219 215 211 214 210 210 198 194 182 204 213 217 271 258 223 203 225 222 220 221 228 237 230 218 200 207 210 223 258 219 258 268 264 270 279 281 286 293 305 303 308 309 306
210 206 204 205 209 210 206 211 212 210 209 208 201 204 211 211 214 230 222 216 248 175 193 258 269 249 184 181 185 195 196 219 228 239 192 220 251 217 251 247 263 256 266 269 271 271 271 279 283 286 302 308 308 309
210 208 206 207 207 208 210 212 209 205 206 197 196 202 186 207 223 236 238 231 243 223 212 208 212 218 171 151 162 167 193 222 225 220 208 186 202 225 237 239 250 260 248 259 286 298 280 260 277 296 301 306 313 321
209 209 208 206 206 209 210 207 203 198 192 184 195 202 215 220 210 207 208 196 203 220 235 243 210 180 163 163 170 108 176 240 249 221 185 219 245 248 252 254 257 252 238 246 260 276 279 287 297 296 295 293 305 317
213 211 210 211 208 205 206 201 194 192 187 196 177 210 249 168 166 181 228 194 192 191 189 227 201 147 180 149 171 190 182 223 237 233 202 236 257 248 272 270 255 237 222 233 239 251 278 294 297 300 301 296 294 309
212 211 213 214 209 206 201 195 189 189 197 194 194 202 162 176 187 196 200 174 207 199 175 192 204 177 167 165 128 178 226 225 251 160 229 241 293 80 122 121 134 153 162 190 237 274 285 288 288 290 294 294 273 319
214 211 214 213 207 200 194 195 201 206 205 208 233 243 178 156 163 194 184 182 199 181 172 165 139 161 166 193 155 180 225 235 185 211 236 223 166 151 110 139 114 73 310 301 302 303 303 309 313 304 291 278 237 190
165 193 205 211 215 216 214 213 215 207 200 206 204 194 174 207 213 203 172 147 168 146 162 159 143 155 183 174 191 222 222 259 255 254 228 155 166 155 140 131 342 356 345 344 351 356 358 358 358 353 343 303 196 286
101 106 122 140 163 179 185 182 172 185 202 226 209 177 196 195 155 89 158 115 144 158 150 177 207 189 177 212 195 222 207 229 223 235 188 152 158 151 131 148 173 349 341 40 45 46 44 43 40 36 47 68 84 83
106 106 94 105 129 131 114 106 170 162 222 234 40 61 35 38 12 165 188 191 172 164 179 209 231 231 228 213 198 203 216 223 231 167 149 152 148 141 144 158 139 18 61 65 69 68 59 56 54 55 52 59 65 71
95 79 74 116 149 162 149 166 170 184 186 153 144 126 158 143 201 184 205 202 189 175 201 184 221 219 138 226 213 186 213 222 147 138 146 149 149 147 146 140 125 121 99 95 85 73 62 49 49 62 56 51 43 38
86 82 90 123 138 150 156 168 167 147 112 131 164 183 210 213 218 236 235 232 218 206 193 226 284 222 213 232 239 192 153 145 147 143 144 145 153 159 158 149 138 113 101 90 80 81 72 49 50 53 48 46 41 47
57 53 54 61 114 96 89 78 63 135 182 186 206 196 207 238 248 252 261 261 257 233 241 219 228 220 221 213 180 155 155 152 145 140 134 129 133 132 134 132 125 118 117 100 96 83 71 55 43 31 38 43 43 42
30 32 30 40 44 78 84 96 296 21 289 319 263 234 237 242 264 263 274 306 270 206 203 232 283 297 272 255 197 174 160 155 144 131 122 121 127 123 114 114 108 104 109 104 91 72 56 40 26 26 36 33 18 20
339 353 359 6 42 96 136 153 202 212 228 212 213 216 237 233 242 242 248 318 315 14 329 319 310 317 84 140 150 157 153 154 153 151 143 132 131 126 120 116 110 109 103 90 70 57 34 40 53 39 37 36 27 15
325 328 331 351 9 22 79 41 297 292 245 254 237 232 244 258 241 168 173 47 34 351 352 338 101 95 105 122 155 163 160 161 152 146 141 141 141 139 134 130 128 107 87 92 82 58 47 45 42 22 3 355 348 343
339 359 24 11 355 18 280 338 321 314 43 302 288 269 267 232 141 137 75 52 15 3 16 99 97 91 102 108 120 133 155 164 149 149 151 149 142 133 133 134 134 124 131 109 102 61 13 359 342 337 338 338 336 331
42 64 38 45 17 326 340 5 349 335 326 335 309 305 332 6 121 64 83 35 11 2 17 36 15 45 93 132 124 122 121 128 131 136 142 154 168 164 196 201 189 189 175 157 274 315 323 323 328 332 335 333 330 324
80 18 24 346 18 12 16 351 348 24 322 306 354 321 317 341 74 55 82 10 25 41 41 18 18 44 114 122 124 120 115 110 123 172 173 191 196 165 156 143 131 113 82 32 3 351 346 340 335 332 331 328 324 323
68 23 47 356 337 21 322 347 324 325 293 318 262 316 347 79 40 47 43 357 10 24 29 22 309 282 242 188 150 132 109 122 142 176 190 198 197 209 188 166 154 21 1 356 349 344 339 336 335 335 334 330 328 330
47 324 3 21 317 307 325 326 319 20 353 348 344 334 25 58 284 295 24 29 38 22 13 1 331 320 277 212 196 182 176 217 260 271 236 200 191 187 193 208 256 305 326 335 336 335 336 335 336 339 343 343 341 339
55 28 21 329 351 3 202 12 19 11 358 342 338 16 17 227 205 331 308 317 324 334 344 351 355 346 212 203 209 252 297 305 233 183 172 158 160 173 189 206 257 325 330 332 335 336 338 338 338 343 347 346 346 347
36 354 343 352 328 338 12 31 6 6 351 325 123 276 215 148 242 285 269 290 292 299 324 347 329 294 286 286 309 319 226 210 210 210 223 226 194 174 4 337 338 336 331 331 336 339 343 350 354 355 351 352 6 15
358 351 324 337 88 263 45 2 335 332 313 301 298 248 225 207 223 287 318 324 331 335 268 271 300 337 342 335 329 281 241 234 239 244 255 257 236 257 285 315 327 329 332 335 340 348 355 5 10 14 21 29 40 46
323 324 303 288 260 273 312 326 323 314 271 239 251 266 207 198 231 297 315 282 295 303 346 317 278 283 284 291 306 29 31 27 172 196 195 198 197 231 294 323 334 343 352 10 29 37 40 43 50 54 57 58 58 54
319 5 336 303 284 317 329 343 336 336 340 174 71 78 128 252 241 279 32 48 32 321 336 344 341 304 239 248 271 302 313 293 297 280 248 234 253 276 355 14 27 47 58 65 69 71 72 68 63 61 53 47 44 39
298 313 300 305 305 330 342 342 3 9 44 51 47 29 359 312 291 246 294 301 351 55 32 19 17 21 9 325 313 311 305 306 273 176 165 156 145 100 61 56 61 68 76 79 81 81 78 72 65 58 52 45 38 32